Weather History for MMPB - October, 2012

Change the Weather History Date:

Tuesday, October 23, 2012

  Actual Average Record
Temperature  
Mean Temperature 62 °F -  
Max Temperature 77 °F 69 °F 77 °F (2010)
Min Temperature 46 °F 47 °F 33 °F (2011)
Degree Days  
Heating Degree Days 4    
Growing Degree Days 12 (Base 50)    
Moisture  
Dew Point 49 °F    
Average Humidity 60    
Maximum Humidity 93    
Minimum Humidity 25    
Precipitation  
Precipitation 0.00 in - - ()
Sea Level Pressure  
Sea Level Pressure 30.09 in    
Wind  
Wind Speed 4 mph ()    
Max Wind Speed 16 mph    
Max Gust Speed -    
Visibility 6.5 miles    
Events      
Averages and records for this station are not official NWS values.
T = Trace of Precipitation, MM = Missing Value Source: Averaged Metar Reports

Daily Weather History Graph

Daily Weather History Graph

Search for Another Location

Airport or City:

Trip Planner

Search our weather history database for the weather conditions in past years. The results will help you decide how hot, cold, wet, or windy it might be!

Date:

Astronomy

Oct. 23, 2012 Rise Set
Actual Time 7:30 AM CDT 7:04 PM CDT
Civil Twilight 7:08 AM CDT 7:26 PM CDT
Nautical Twilight 6:42 AM CDT 7:52 PM CDT
Astronomical Twilight 6:16 AM CDT 8:18 PM CDT
Moon 3:07 PM CDT (10/23) 2:11 AM CDT (10/23)
Length of Visible Light 12h 18m
Length of Day
11h 34m
Waxing Gibbous, 67% of the Moon is Illuminated
Oct 23
Waxing Gibbous
Oct 29
Full
Nov 6
Last Quarter
Nov 13
New
Nov 20
First Quarter

Hourly Weather History & Observations

Time (CDT) Temp. Windchill Dew Point Humidity Pressure Visibility Wind Dir Wind Speed Gust Speed Precip Events Conditions
12:50 AM 59 °F - 50 °F 64% 29.75 in 3 mi Calm Calm - -  
3:59 AM 56 °F - 51 °F 79% 29.82 in 3 mi Calm Calm - -  
6:08 AM 48.2 °F - 44.6 °F 87% 30.25 in 6.0 mi WNW 2.3 mph - N/A   Clear
6:46 AM 46.4 °F 43.5 °F 44.6 °F 93% 30.25 in 6.0 mi NNW 5.8 mph - N/A   Clear
6:56 AM 52 °F - 49 °F 84% 29.82 in 3 mi Calm Calm - -  
7:44 AM 46.4 °F 43.5 °F 44.6 °F 93% 30.27 in 6.0 mi NNW 5.8 mph - N/A   Scattered Clouds
8:40 AM 51.8 °F - 46.4 °F 82% 30.27 in 6.0 mi North 6.9 mph - N/A   Scattered Clouds
9:44 AM 60.8 °F - 50.0 °F 68% 30.28 in 7.0 mi NNE 5.8 mph - N/A   Scattered Clouds
9:50 AM 61 °F - 49 °F 55% 29.88 in 3 mi Calm Calm - -   Haze
10:40 AM 66.2 °F - 51.8 °F 60% 30.27 in 7.0 mi North 9.2 mph - N/A   Scattered Clouds
11:40 AM 71.6 °F - 50.0 °F 46% 30.26 in 7.0 mi NE 8.1 mph - N/A   Scattered Clouds
12:40 PM 73 °F - 47 °F 29% 29.81 in 6 mi ESE 2.2 mph - -   Haze
12:40 PM 77.0 °F - 50.0 °F 39% 30.23 in 8.0 mi NNE 4.6 mph - N/A   Scattered Clouds
1:45 PM 75.2 °F - 42.8 °F 31% 30.26 in 8.0 mi SSE 8.1 mph - N/A   Scattered Clouds
2:42 PM 75.2 °F - 53.6 °F 47% 30.18 in 8.0 mi South 13.8 mph - N/A   Mostly Cloudy
3:40 PM 75 °F - 46 °F 25% 29.69 in 6 mi ESE 2.2 mph - -   Haze
3:40 PM 75.2 °F - 53.6 °F 47% 30.17 in 8.0 mi SE 9.2 mph - N/A   Mostly Cloudy
4:42 PM 75.2 °F - 53.6 °F 47% 30.16 in 8.0 mi South 12.7 mph - N/A   Mostly Cloudy
5:45 PM 71.6 °F - 53.6 °F 53% 30.17 in 8.0 mi SSW 16.1 mph - N/A   Mostly Cloudy
6:40 PM 69 °F - 48 °F 37% 29.65 in 12 mi East 2.2 mph - -   Mostly Cloudy
6:43 PM 68.0 °F - 51.8 °F 56% 30.20 in 8.0 mi South 13.8 mph - N/A   Overcast
7:43 PM 64.4 °F - 53.6 °F 68% 30.24 in 6.0 mi ESE 8.1 mph - N/A   Light Drizzle
8:41 PM 62.6 °F - 53.6 °F 72% 30.26 in 7.0 mi North 5.8 mph - N/A   Light Drizzle
9:43 PM 60.8 °F - 51.8 °F 72% 30.29 in 7.0 mi NNW 5.8 mph - N/A   Mostly Cloudy
9:45 PM 62 °F - 45 °F 43% 29.67 in 3 mi NNE 2.2 mph - -  
10:50 PM 57.2 °F - 50.0 °F 77% 30.31 in 8.0 mi North 4.6 mph - N/A   Scattered Clouds